| time (UTC) | temp F | wind direction | speed MPH | gust MPH | rain 1hr in | rain 24hr in | rain mn in | humidity % | barometer mb |
| 20260505171103 | 73 | 170 | 4.0 | 8.0 | 0.00 | 0.00 | 0.00 | 30 | 1005.9 |
| 20260505170104 | 72 | 180 | 5.0 | 8.0 | 0.00 | 0.00 | 0.00 | 31 | 1005.9 |
| 20260505165103 | 72 | 168 | 3.0 | 8.0 | 0.00 | 0.00 | 0.00 | 31 | 1005.8 |
| 20260505164104 | 71 | 188 | 5.0 | 9.0 | 0.00 | 0.00 | 0.00 | 31 | 1005.8 |
| 20260505163103 | 71 | 184 | 5.0 | 12.0 | 0.00 | 0.00 | 0.00 | 32 | 1005.7 |
| 20260505162104 | 70 | 159 | 4.0 | 13.0 | 0.00 | 0.00 | 0.00 | 33 | 1005.6 |
| 20260505161103 | 70 | 198 | 5.0 | 12.0 | 0.00 | 0.00 | 0.00 | 35 | 1005.5 |
| 20260505153104 | 67 | 168 | 4.0 | 7.0 | 0.00 | 0.00 | 0.00 | 41 | 1005.3 |
| 20260505152103 | 66 | 183 | 5.0 | 9.0 | 0.00 | 0.00 | 0.00 | 42 | 1005.1 |
| 20260505151104 | 66 | 177 | 5.0 | 13.0 | 0.00 | 0.00 | 0.00 | 41 | 1004.8 |
| 20260505150104 | 65 | 116 | 6.0 | 13.0 | 0.00 | 0.00 | 0.00 | 41 | 1004.7 |
| 20260505140104 | 57 | 338 | 1.0 | 5.0 | 0.00 | 0.00 | 0.00 | 58 | 1004.1 |
| 20260505130104 | 54 | 119 | 5.0 | 9.0 | 0.00 | 0.00 | 0.00 | 59 | 1003.2 |
| 20260505122103 | 53 | 184 | 0.0 | 1.0 | 0.00 | 0.00 | 0.00 | 62 | 1002.3 |
| 20260505121103 | 53 | 184 | 0.0 | 2.0 | 0.00 | 0.00 | 0.00 | 61 | 1002.0 |
| 20260505120104 | 53 | 195 | 0.0 | 2.0 | 0.00 | 0.00 | 0.00 | 60 | 1002.0 |
| 20260505115104 | 54 | 126 | 1.0 | 5.0 | 0.00 | 0.00 | 0.00 | 60 | 1001.8 |
| 20260505114103 | 54 | 168 | 0.0 | 3.0 | 0.00 | 0.00 | 0.00 | 59 | 1001.8 |
| 20260505113103 | 54 | 130 | 0.0 | 3.0 | 0.00 | 0.00 | 0.00 | 57 | 1001.7 |
| 20260505112104 | 55 | 107 | 0.0 | 1.0 | 0.00 | 0.00 | 0.00 | 57 | 1001.5 |
| 20260505102103 | 58 | 149 | 1.0 | 3.0 | 0.00 | 0.00 | 0.00 | 51 | 1001.3 |
| 20260505101104 | 58 | 175 | 1.0 | 3.0 | 0.00 | 0.00 | 0.00 | 51 | 1001.1 |
| 20260505100104 | 58 | 188 | 1.0 | 6.0 | 0.00 | 0.00 | 0.00 | 51 | 1001.0 |
| 20260505092104 | 60 | 192 | 3.0 | 7.0 | 0.00 | 0.00 | 0.00 | 47 | 1000.5 |
| 20260505091103 | 60 | 175 | 3.0 | 7.0 | 0.00 | 0.00 | 0.00 | 47 | 1000.5 |
| 20260505090104 | 60 | 175 | 3.0 | 7.0 | 0.00 | 0.00 | 0.00 | 47 | 1000.5 |
| 20260505085103 | 60 | 164 | 5.0 | 10.0 | 0.00 | 0.00 | 0.00 | 46 | 1000.5 |
| 20260505084104 | 60 | 197 | 7.0 | 12.0 | 0.00 | 0.00 | 0.00 | 46 | 1000.3 |
| 20260505083104 | 61 | 200 | 2.0 | 6.0 | 0.00 | 0.00 | 0.00 | 46 | 1000.3 |
| 20260505082103 | 61 | 246 | 1.0 | 6.0 | 0.00 | 0.00 | 0.00 | 45 | 1000.4 |
| 20260505081103 | 61 | 176 | 1.0 | 5.0 | 0.00 | 0.00 | 0.00 | 45 | 1000.2 |
| 20260505075104 | 61 | 338 | 1.0 | 3.0 | 0.00 | 0.00 | 0.00 | 45 | 1000.3 |
| 20260505074104 | 62 | 199 | 1.0 | 3.0 | 0.00 | 0.00 | 0.00 | 44 | 1000.4 |
| 20260505070104 | 63 | 176 | 2.0 | 5.0 | 0.00 | 0.00 | 0.00 | 42 | 1000.2 |
| 20260505065104 | 64 | 188 | 2.0 | 6.0 | 0.00 | 0.00 | 0.00 | 41 | 1000.2 |
| 20260505064104 | 64 | 183 | 2.0 | 3.0 | 0.00 | 0.00 | 0.00 | 40 | 1000.0 |
| 20260505062104 | 64 | 201 | 3.0 | 6.0 | 0.00 | 0.00 | 0.00 | 39 | 1000.0 |
| 20260505061103 | 64 | 178 | 1.0 | 6.0 | 0.00 | 0.00 | 0.00 | 40 | 1000.0 |
| 20260505060104 | 64 | 132 | 0.0 | 3.0 | 0.00 | 0.00 | 0.00 | 40 | 1000.0 |
| 20260505054105 | 65 | 135 | 1.0 | 3.0 | 0.00 | 0.00 | 0.00 | 39 | 999.9 |
| 20260505053103 | 64 | 187 | 1.0 | 5.0 | 0.00 | 0.00 | 0.00 | 38 | 999.9 |
| 20260505052106 | 65 | 166 | 1.0 | 3.0 | 0.00 | 0.00 | 0.00 | 39 | 999.9 |
| 20260505051104 | 65 | 128 | 2.0 | 5.0 | 0.00 | 0.00 | 0.00 | 38 | 999.9 |
| 20260505050103 | 67 | 106 | 1.0 | 5.0 | 0.00 | 0.00 | 0.00 | 36 | 999.9 |
| 20260505041104 | 69 | 90 | 2.0 | 5.0 | 0.00 | 0.00 | 0.00 | 36 | 999.4 |
| 20260505040104 | 70 | 264 | 0.0 | 3.0 | 0.00 | 0.00 | 0.00 | 32 | 999.4 |
| 20260505035104 | 71 | 33 | 1.0 | 2.0 | 0.00 | 0.00 | 0.00 | 29 | 999.3 |
| 20260505034104 | 71 | 65 | 1.0 | 3.0 | 0.00 | 0.00 | 0.00 | 28 | 999.2 |
| 20260505033104 | 72 | 31 | 1.0 | 3.0 | 0.00 | 0.00 | 0.00 | 28 | 998.9 |
| 20260505031104 | 74 | 120 | 1.0 | 3.0 | 0.00 | 0.00 | 0.00 | 29 | 998.9 |
| 20260505030103 | 75 | 348 | 2.0 | 3.0 | 0.00 | 0.00 | 0.00 | 27 | 998.8 |
| 20260505025104 | 75 | 326 | 3.0 | 6.0 | 0.00 | 0.00 | 0.00 | 26 | 998.7 |
| 20260505024103 | 76 | 319 | 3.0 | 6.0 | 0.00 | 0.00 | 0.00 | 25 | 998.5 |
| 20260505023104 | 77 | 324 | 4.0 | 8.0 | 0.00 | 0.00 | 0.00 | 25 | 998.4 |
| 20260505022104 | 78 | 316 | 3.0 | 8.0 | 0.00 | 0.00 | 0.00 | 24 | 998.3 |
| 20260505021103 | 79 | 331 | 9.0 | 13.0 | 0.00 | 0.00 | 0.00 | 11 | 998.4 |
| 20260504225104 | 86 | 313 | 5.0 | 12.0 | 0.00 | 0.00 | 0.00 | 12 | 999.7 |
| 20260504224104 | 86 | 317 | 7.0 | 13.0 | 0.00 | 0.00 | 0.00 | 12 | 999.7 |
| 20260504223104 | 86 | 302 | 6.0 | 15.0 | 0.00 | 0.00 | 0.00 | 12 | 999.9 |
| 20260504222104 | 87 | 291 | 3.0 | 12.0 | 0.00 | 0.00 | 0.00 | 13 | 999.8 |
| 20260504221104 | 86 | 285 | 4.0 | 9.0 | 0.00 | 0.00 | 0.00 | 16 | 999.9 |
| 20260504220104 | 86 | 294 | 5.0 | 14.0 | 0.00 | 0.00 | 0.00 | 18 | 1000.1 |
| 20260504215103 | 86 | 285 | 3.0 | 9.0 | 0.00 | 0.00 | 0.00 | 17 | 1000.2 |
| 20260504214103 | 86 | 287 | 3.0 | 9.0 | 0.00 | 0.00 | 0.00 | 20 | 1000.3 |
| 20260504213103 | 85 | 307 | 3.0 | 9.0 | 0.00 | 0.00 | 0.00 | 19 | 1000.4 |
| 20260504210104 | 84 | 19 | 4.0 | 8.0 | 0.00 | 0.00 | 0.00 | 22 | 1000.8 |
| 20260504205103 | 83 | 345 | 3.0 | 9.0 | 0.00 | 0.00 | 0.00 | 22 | 1000.9 |
| 20260504203103 | 83 | 335 | 3.0 | 9.0 | 0.00 | 0.00 | 0.00 | 21 | 1001.2 |
| 20260504202104 | 83 | 355 | 3.0 | 8.0 | 0.00 | 0.00 | 0.00 | 24 | 1001.4 |
| 20260504200103 | 82 | 275 | 2.0 | 3.0 | 0.00 | 0.00 | 0.00 | 26 | 1001.5 |
| 20260504195104 | 82 | 215 | 3.0 | 6.0 | 0.00 | 0.00 | 0.00 | 28 | 1001.7 |
| 20260504194103 | 81 | 250 | 2.0 | 6.0 | 0.00 | 0.00 | 0.00 | 28 | 1001.9 |
| 20260504193104 | 80 | 167 | 3.0 | 6.0 | 0.00 | 0.00 | 0.00 | 28 | 1002.0 |
| 20260504191104 | 79 | 232 | 2.0 | 8.0 | 0.00 | 0.00 | 0.00 | 30 | 1002.3 |
| 20260504185103 | 79 | 169 | 3.0 | 8.0 | 0.00 | 0.00 | 0.00 | 29 | 1002.5 |
| 20260504184104 | 79 | 231 | 2.0 | 6.0 | 0.00 | 0.00 | 0.00 | 31 | 1002.7 |
| 20260504182103 | 77 | 231 | 1.0 | 5.0 | 0.00 | 0.00 | 0.00 | 31 | 1003.0 |
| 20260504181104 | 76 | 181 | 2.0 | 5.0 | 0.00 | 0.00 | 0.00 | 36 | 1003.1 |
| 20260504180103 | 76 | 261 | 1.0 | 3.0 | 0.00 | 0.00 | 0.00 | 36 | 1003.2 |
| 20260504175104 | 75 | 285 | 1.0 | 3.0 | 0.00 | 0.00 | 0.00 | 35 | 1003.2 |
| 20260504174104 | 74 | 157 | 2.0 | 5.0 | 0.00 | 0.00 | 0.00 | 37 | 1003.3 |
| 20260504173104 | 73 | 204 | 1.0 | 7.0 | 0.00 | 0.00 | 0.00 | 37 | 1003.4 |
| 20260504172103 | 73 | 191 | 3.0 | 6.0 | 0.00 | 0.00 | 0.00 | 35 | 1003.5 |